WZZ973 EPGD-EFTU

Flight info

Callsign WZZ973
Flight time 1h 11m
Altitude 34000
Route VAPOS N133 PENOR DCT ANFEV DCT DIPEB/N0422F350 DCT VEDEN DCT NISIX DCT EMPOM
Aircraft A21N/M-SDE1E2E3FGIJ1J4RWXY/LB1

Departure

Time 2026-05-06 08:39
Airport Gdańsk Lech Wałęsa Airport (EPGD)

Arrival

Time 2026-05-06 09:50
Airport Turku Airport (EFTU)
Time Latitude Longitude Altitude Speed Heading
2026-05-06 08:19 54.38118 18.46614 450 ft 0 kts 23°
2026-05-06 08:30 54.38107 18.46606 449 ft 2 kts 22°
2026-05-06 08:30 54.38097 18.46598 449 ft 0 kts 22°
2026-05-06 08:30 54.38086 18.46591 448 ft 1 kts
2026-05-06 08:31 54.38073 18.46594 448 ft 2 kts 333°
2026-05-06 08:31 54.38061 18.46610 448 ft 1 kts 299°
2026-05-06 08:31 54.38059 18.46621 449 ft 0 kts 287°
2026-05-06 08:31 54.38057 18.46627 449 ft 0 kts 292°
2026-05-06 08:33 54.38058 18.46625 449 ft 2 kts 294°
2026-05-06 08:34 54.38076 18.46562 448 ft 6 kts 292°
2026-05-06 08:34 54.38130 18.46355 448 ft 12 kts 293°
2026-05-06 08:34 54.38165 18.46222 448 ft 12 kts 295°
2026-05-06 08:35 54.38178 18.46167 448 ft 0 kts 287°
2026-05-06 08:35 54.38178 18.46166 448 ft 1 kts 287°
2026-05-06 08:35 54.38163 18.46103 448 ft 7 kts 220°
2026-05-06 08:35 54.38116 18.46059 448 ft 8 kts 212°
2026-05-06 08:36 54.38099 18.45960 447 ft 10 kts 291°
2026-05-06 08:36 54.38127 18.45844 447 ft 10 kts 292°
2026-05-06 08:36 54.38150 18.45752 448 ft 6 kts 291°
2026-05-06 08:36 54.38146 18.45683 448 ft 2 kts 245°
2026-05-06 08:37 54.38132 18.45651 447 ft 2 kts 222°
2026-05-06 08:37 54.38124 18.45641 447 ft 0 kts 206°
2026-05-06 08:38 54.38095 18.45621 447 ft 7 kts 202°
2026-05-06 08:38 54.38032 18.45591 446 ft 10 kts 165°
2026-05-06 08:38 54.37972 18.45759 445 ft 38 kts 111°
2026-05-06 08:38 54.37754 18.46640 447 ft 119 kts 113°
2026-05-06 08:39 54.37340 18.48285 604 ft 168 kts 109°
2026-05-06 08:39 54.36858 18.50084 1452 ft 169 kts 109°
2026-05-06 08:39 54.36369 18.51859 2210 ft 168 kts 110°
2026-05-06 08:39 54.35894 18.53737 2682 ft 179 kts 107°
2026-05-06 08:40 54.35433 18.55810 3077 ft 196 kts 108°
2026-05-06 08:40 54.34911 18.58078 3511 ft 213 kts 109°
2026-05-06 08:40 54.34356 18.60409 4311 ft 214 kts 111°
2026-05-06 08:40 54.33788 18.62759 5032 ft 219 kts 111°
2026-05-06 08:41 54.33514 18.65317 5696 ft 227 kts 85°
2026-05-06 08:41 54.34092 18.67853 6380 ft 238 kts 56°
2026-05-06 08:41 54.35428 18.69638 7011 ft 253 kts 28°
2026-05-06 08:41 54.37067 18.70771 7549 ft 261 kts 25°
2026-05-06 08:42 54.38807 18.71880 7837 ft 271 kts 16°
2026-05-06 08:42 54.40745 18.71775 8150 ft 294 kts 341°
2026-05-06 08:42 54.42425 18.69843 8675 ft 300 kts 308°
2026-05-06 08:42 54.43573 18.66873 9422 ft 300 kts 298°
2026-05-06 08:43 54.44623 18.63796 10107 ft 303 kts 299°
2026-05-06 08:43 54.45766 18.60665 10511 ft 317 kts 301°
2026-05-06 08:43 54.47034 18.57451 10920 ft 330 kts 303°
2026-05-06 08:43 54.48363 18.54259 11548 ft 334 kts 304°
2026-05-06 08:44 54.49751 18.51031 12213 ft 336 kts 304°
2026-05-06 08:44 54.51154 18.47817 12830 ft 339 kts 303°
2026-05-06 08:44 54.52565 18.44595 13442 ft 343 kts 304°
2026-05-06 08:44 54.54015 18.41293 14057 ft 345 kts 304°
2026-05-06 08:45 54.55454 18.38020 14642 ft 348 kts 303°
2026-05-06 08:45 54.56913 18.34693 15205 ft 351 kts 303°
2026-05-06 08:45 54.58382 18.31344 15793 ft 353 kts 303°
2026-05-06 08:45 54.59875 18.27936 16350 ft 356 kts 302°
2026-05-06 08:46 54.61354 18.24560 16899 ft 358 kts 303°
2026-05-06 08:46 54.62850 18.21140 17392 ft 361 kts 303°
2026-05-06 08:46 54.64381 18.17633 17884 ft 364 kts 303°
2026-05-06 08:46 54.65894 18.14164 18356 ft 366 kts 303°
2026-05-06 08:47 54.67418 18.10663 18809 ft 368 kts 302°
2026-05-06 08:47 54.68951 18.07140 19273 ft 371 kts 303°
2026-05-06 08:47 54.70513 18.03544 19736 ft 373 kts 302°
2026-05-06 08:47 54.72050 17.99996 20169 ft 375 kts 303°
2026-05-06 08:48 54.73627 17.96351 20637 ft 377 kts 302°
2026-05-06 08:48 54.75190 17.92742 21074 ft 380 kts 302°
2026-05-06 08:48 54.76771 17.89077 21508 ft 381 kts 303°
2026-05-06 08:48 54.78408 17.85447 21943 ft 385 kts 308°
2026-05-06 08:49 54.80411 17.82358 22364 ft 392 kts 321°
2026-05-06 08:49 54.82770 17.79999 22755 ft 398 kts 331°
2026-05-06 08:49 54.85276 17.78014 23156 ft 400 kts 333°
2026-05-06 08:49 54.87849 17.76059 23560 ft 402 kts 333°
2026-05-06 08:50 54.90395 17.74109 23956 ft 404 kts 333°
2026-05-06 08:50 54.92957 17.72116 24328 ft 407 kts 332°
2026-05-06 08:50 54.95553 17.70074 24700 ft 409 kts 332°
2026-05-06 08:50 54.98130 17.68040 25086 ft 411 kts 333°
2026-05-06 08:51 55.00725 17.66047 25483 ft 413 kts 333°
2026-05-06 08:51 55.03379 17.64033 25875 ft 415 kts 333°
2026-05-06 08:51 55.05997 17.62046 26241 ft 417 kts 333°
2026-05-06 08:51 55.08681 17.60000 26596 ft 419 kts 333°
2026-05-06 08:52 55.11340 17.57963 26938 ft 421 kts 333°
2026-05-06 08:52 55.14014 17.55908 27267 ft 423 kts 333°
2026-05-06 08:52 55.16715 17.53830 27614 ft 425 kts 333°
2026-05-06 08:52 55.19398 17.51767 27960 ft 426 kts 332°
2026-05-06 08:53 55.22121 17.49658 28266 ft 428 kts 332°
2026-05-06 08:53 55.24822 17.47525 28592 ft 429 kts 332°
2026-05-06 08:53 55.27529 17.45367 28880 ft 432 kts 332°
2026-05-06 08:53 55.30258 17.43189 29177 ft 434 kts 332°
2026-05-06 08:54 55.32994 17.41004 29484 ft 435 kts 331°
2026-05-06 08:54 55.35750 17.38802 29770 ft 438 kts 332°
2026-05-06 08:54 55.38540 17.36568 30056 ft 439 kts 331°
2026-05-06 08:54 55.41296 17.34360 30323 ft 441 kts 330°
2026-05-06 08:55 55.44088 17.32120 30609 ft 443 kts 330°
2026-05-06 08:55 55.46893 17.29867 30911 ft 444 kts 330°
2026-05-06 08:55 55.49714 17.27595 31207 ft 446 kts 330°
2026-05-06 08:55 55.52531 17.25324 31498 ft 447 kts 330°
2026-05-06 08:56 55.55319 17.23070 31750 ft 449 kts 330°
2026-05-06 08:56 55.58254 17.21043 31992 ft 455 kts 338°
2026-05-06 08:56 55.61319 17.19692 32262 ft 461 kts 345°
2026-05-06 08:56 55.64545 17.19051 32498 ft 467 kts 354°
2026-05-06 08:57 55.67799 17.19215 32714 ft 473 kts
2026-05-06 08:57 55.71018 17.20183 33020 ft 476 kts 11°
2026-05-06 08:57 55.74181 17.21942 33339 ft 478 kts 19°
2026-05-06 08:57 55.77162 17.24449 33638 ft 480 kts 28°
2026-05-06 08:58 55.79932 17.27672 33865 ft 482 kts 36°
2026-05-06 08:58 55.84814 17.35831 33879 ft 484 kts 46°
2026-05-06 08:59 55.89448 17.44478 33887 ft 484 kts 46°
2026-05-06 08:59 55.94112 17.53086 33891 ft 485 kts 45°
2026-05-06 09:00 55.98859 17.61799 34292 ft 489 kts 45°
2026-05-06 09:00 56.01221 17.66136 34626 ft 488 kts 46°
2026-05-06 09:00 56.03573 17.70459 34898 ft 488 kts 46°
2026-05-06 09:00 56.05951 17.74838 35168 ft 488 kts 46°
2026-05-06 09:01 56.08282 17.79141 35349 ft 488 kts 46°
2026-05-06 09:01 56.10635 17.83497 35536 ft 488 kts 46°
2026-05-06 09:01 56.13006 17.87893 35710 ft 488 kts 46°
2026-05-06 09:01 56.15335 17.92216 35877 ft 487 kts 46°
2026-05-06 09:02 56.17607 17.96669 36045 ft 487 kts 49°
2026-05-06 09:02 56.19733 18.01386 36176 ft 487 kts 53°
2026-05-06 09:02 56.21720 18.06293 36289 ft 487 kts 55°
2026-05-06 09:02 56.23660 18.11254 36391 ft 488 kts 56°
2026-05-06 09:03 56.25596 18.16246 36485 ft 489 kts 56°
2026-05-06 09:03 56.27551 18.21281 36593 ft 489 kts 55°
2026-05-06 09:03 56.29489 18.26269 36718 ft 488 kts 55°
2026-05-06 09:03 56.31440 18.31281 36877 ft 488 kts 55°
2026-05-06 09:04 56.33392 18.36298 36923 ft 490 kts 55°
2026-05-06 09:04 56.37273 18.46299 36934 ft 489 kts 55°
2026-05-06 09:05 56.41154 18.56336 36937 ft 490 kts 54°
2026-05-06 09:05 56.45027 18.66401 36933 ft 490 kts 56°
2026-05-06 09:06 56.48937 18.76393 36938 ft 490 kts 51°
2026-05-06 09:06 56.53769 18.84951 36938 ft 488 kts 34°
2026-05-06 09:07 56.59593 18.90961 36928 ft 481 kts 18°
2026-05-06 09:07 56.65909 18.94576 36932 ft 477 kts 11°
2026-05-06 09:08 56.72268 18.97739 36937 ft 477 kts 11°
2026-05-06 09:08 56.78648 19.00986 36935 ft 477 kts 11°
2026-05-06 09:09 56.85037 19.04302 36942 ft 477 kts 11°
2026-05-06 09:09 56.91370 19.07619 36945 ft 477 kts 11°
2026-05-06 09:10 56.97706 19.10952 36949 ft 477 kts 11°
2026-05-06 09:10 57.04076 19.14316 36943 ft 477 kts 11°
2026-05-06 09:11 57.10453 19.17700 36938 ft 478 kts 11°
2026-05-06 09:11 57.16828 19.21093 36937 ft 478 kts 10°
2026-05-06 09:12 57.23183 19.24483 36941 ft 479 kts 11°
2026-05-06 09:12 57.29572 19.27907 36949 ft 479 kts 10°
2026-05-06 09:13 57.35934 19.31329 36951 ft 480 kts 10°
2026-05-06 09:13 57.42298 19.34769 36953 ft 479 kts 10°
2026-05-06 09:14 57.48695 19.38235 36954 ft 479 kts 10°
2026-05-06 09:14 57.55063 19.41693 36944 ft 480 kts 10°
2026-05-06 09:15 57.61462 19.45188 36956 ft 480 kts
2026-05-06 09:15 57.67860 19.48693 36969 ft 480 kts
2026-05-06 09:16 57.74274 19.52216 36952 ft 481 kts 10°
2026-05-06 09:16 57.80655 19.55739 36948 ft 482 kts 10°
2026-05-06 09:17 57.87067 19.59289 36957 ft 482 kts
2026-05-06 09:17 57.93444 19.62838 36976 ft 481 kts
2026-05-06 09:18 57.99862 19.66419 36976 ft 480 kts 10°
2026-05-06 09:18 58.06242 19.69991 36973 ft 482 kts 10°
2026-05-06 09:19 58.12720 19.73630 36972 ft 483 kts 11°
2026-05-06 09:19 58.19140 19.77256 36980 ft 483 kts 10°
2026-05-06 09:20 58.25533 19.80881 36964 ft 483 kts 10°
2026-05-06 09:20 58.31961 19.84535 36982 ft 484 kts 10°
2026-05-06 09:21 58.38372 19.88190 36984 ft 483 kts 10°
2026-05-06 09:21 58.44770 19.91860 36978 ft 483 kts 10°
2026-05-06 09:22 58.51181 19.95545 36983 ft 483 kts 10°
2026-05-06 09:22 58.57605 19.99250 36992 ft 484 kts 10°
2026-05-06 09:23 58.64017 20.02973 36986 ft 482 kts
2026-05-06 09:23 58.67210 20.04830 37272 ft 482 kts
2026-05-06 09:23 58.70415 20.06692 37118 ft 484 kts
2026-05-06 09:23 58.73608 20.08557 36846 ft 484 kts
2026-05-06 09:24 58.76846 20.10457 36365 ft 487 kts
2026-05-06 09:24 58.80052 20.12340 35743 ft 492 kts
2026-05-06 09:24 58.83334 20.14266 35076 ft 497 kts
2026-05-06 09:24 58.86648 20.16209 34183 ft 501 kts
2026-05-06 09:25 58.89944 20.18144 33322 ft 503 kts
2026-05-06 09:25 58.93269 20.20105 32576 ft 503 kts
2026-05-06 09:25 58.96611 20.22087 31932 ft 500 kts
2026-05-06 09:25 58.99922 20.24054 31305 ft 497 kts
2026-05-06 09:26 59.03182 20.25993 30696 ft 494 kts
2026-05-06 09:26 59.06428 20.27922 30107 ft 491 kts
2026-05-06 09:26 59.09695 20.29867 29501 ft 488 kts
2026-05-06 09:26 59.12928 20.31798 28946 ft 484 kts
2026-05-06 09:27 59.16089 20.33688 28448 ft 478 kts
2026-05-06 09:27 59.19246 20.35585 28024 ft 471 kts
2026-05-06 09:27 59.22331 20.37443 27609 ft 465 kts
2026-05-06 09:27 59.25384 20.39285 27177 ft 459 kts
2026-05-06 09:28 59.28429 20.41120 26731 ft 454 kts
2026-05-06 09:28 59.31363 20.43311 26288 ft 458 kts 15°
2026-05-06 09:28 59.34161 20.46260 25854 ft 462 kts 24°
2026-05-06 09:28 59.36805 20.49761 25442 ft 460 kts 27°
2026-05-06 09:29 59.39397 20.53412 25059 ft 455 kts 28°
2026-05-06 09:29 59.41937 20.57025 24686 ft 449 kts 28°
2026-05-06 09:29 59.44459 20.60601 24279 ft 445 kts 28°
2026-05-06 09:29 59.46933 20.64089 23878 ft 441 kts 28°
2026-05-06 09:30 59.49423 20.67590 23476 ft 437 kts 28°
2026-05-06 09:30 59.51879 20.71035 23076 ft 433 kts 28°
2026-05-06 09:30 59.54284 20.74413 22697 ft 428 kts 28°
2026-05-06 09:30 59.56691 20.77795 22312 ft 424 kts 29°
2026-05-06 09:31 59.59078 20.81157 21927 ft 421 kts 29°
2026-05-06 09:31 59.61437 20.84489 21533 ft 417 kts 28°
2026-05-06 09:31 59.63777 20.87796 21144 ft 413 kts 28°
2026-05-06 09:31 59.66101 20.91080 20756 ft 410 kts 29°
2026-05-06 09:32 59.68394 20.94325 20367 ft 406 kts 29°
2026-05-06 09:32 59.70671 20.97559 19968 ft 403 kts 29°
2026-05-06 09:32 59.72937 21.00782 19574 ft 400 kts 29°
2026-05-06 09:32 59.75172 21.03970 19195 ft 397 kts 29°
2026-05-06 09:33 59.77388 21.07134 18826 ft 393 kts 29°
2026-05-06 09:33 59.79601 21.10297 18434 ft 391 kts 29°
2026-05-06 09:33 59.81805 21.13452 18049 ft 387 kts 29°
2026-05-06 09:33 59.83962 21.16546 17687 ft 384 kts 29°
2026-05-06 09:34 59.86098 21.19615 17297 ft 381 kts 29°
2026-05-06 09:34 59.88248 21.22708 16900 ft 378 kts 29°
2026-05-06 09:34 59.90350 21.25738 16539 ft 374 kts 29°
2026-05-06 09:34 59.92421 21.28731 16195 ft 370 kts 29°
2026-05-06 09:35 59.94498 21.31734 15817 ft 367 kts 29°
2026-05-06 09:35 59.96537 21.34688 15445 ft 364 kts 29°
2026-05-06 09:35 59.98601 21.37679 15050 ft 361 kts 29°
2026-05-06 09:35 60.00550 21.40508 14675 ft 359 kts 30°
2026-05-06 09:36 60.02551 21.43417 14307 ft 355 kts 29°
2026-05-06 09:36 60.04527 21.46296 13942 ft 352 kts 30°
2026-05-06 09:36 60.06493 21.49164 13572 ft 349 kts 30°
2026-05-06 09:36 60.08424 21.51982 13214 ft 346 kts 30°
2026-05-06 09:37 60.10369 21.54827 12867 ft 342 kts 31°
2026-05-06 09:37 60.12259 21.57599 12516 ft 339 kts 31°
2026-05-06 09:37 60.14162 21.60392 12164 ft 335 kts 31°
2026-05-06 09:37 60.16023 21.63128 11821 ft 332 kts 31°
2026-05-06 09:38 60.17873 21.65850 11461 ft 329 kts 33°
2026-05-06 09:38 60.19705 21.68554 11101 ft 326 kts 33°
2026-05-06 09:38 60.21363 21.71637 10741 ft 327 kts 47°
2026-05-06 09:38 60.22616 21.75438 10394 ft 327 kts 59°
2026-05-06 09:39 60.23661 21.79481 10048 ft 326 kts 61°
2026-05-06 09:39 60.24665 21.83527 9948 ft 325 kts 61°
2026-05-06 09:39 60.25682 21.87621 9846 ft 326 kts 61°
2026-05-06 09:39 60.26684 21.91637 9451 ft 323 kts 61°
2026-05-06 09:40 60.27693 21.95659 9081 ft 320 kts 61°
2026-05-06 09:40 60.28689 21.99615 8703 ft 318 kts 61°
2026-05-06 09:40 60.30666 22.07476 7972 ft 313 kts 61°
2026-05-06 09:41 60.31643 22.11366 7628 ft 311 kts 61°
2026-05-06 09:41 60.32618 22.15249 7274 ft 309 kts 61°
2026-05-06 09:41 60.33575 22.19070 6897 ft 307 kts 61°
2026-05-06 09:41 60.34528 22.22880 6523 ft 305 kts 61°
2026-05-06 09:42 60.35488 22.26724 6176 ft 304 kts 61°
2026-05-06 09:42 60.36426 22.30518 5847 ft 302 kts 61°
2026-05-06 09:42 60.37362 22.34286 5542 ft 301 kts 61°
2026-05-06 09:42 60.38296 22.38036 5197 ft 299 kts 61°
2026-05-06 09:43 60.39225 22.41765 4855 ft 298 kts 61°
2026-05-06 09:43 60.40145 22.45472 4531 ft 296 kts 60°
2026-05-06 09:43 60.41063 22.49186 4166 ft 292 kts 60°
2026-05-06 09:43 60.41948 22.52775 3804 ft 279 kts 60°
2026-05-06 09:44 60.42775 22.56144 3442 ft 264 kts 60°
2026-05-06 09:44 60.43575 22.59398 3079 ft 254 kts 60°
2026-05-06 09:44 60.44431 22.62462 2794 ft 245 kts 46°
2026-05-06 09:44 60.45809 22.64173 2592 ft 230 kts
2026-05-06 09:45 60.47370 22.64086 2476 ft 225 kts 349°
2026-05-06 09:45 60.48904 22.63578 2343 ft 220 kts 348°
2026-05-06 09:45 60.50388 22.63127 2210 ft 216 kts 349°
2026-05-06 09:45 60.51885 22.62742 2134 ft 216 kts 348°
2026-05-06 09:46 60.53208 22.61569 2005 ft 208 kts 311°
2026-05-06 09:46 60.53736 22.59004 1965 ft 200 kts 268°
2026-05-06 09:46 60.53350 22.56288 2004 ft 204 kts 249°
2026-05-06 09:46 60.52853 22.53663 2046 ft 192 kts 255°
2026-05-06 09:47 60.52557 22.51169 2005 ft 172 kts 262°
2026-05-06 09:47 60.52415 22.48909 1980 ft 150 kts 267°
2026-05-06 09:47 60.52330 22.46836 1948 ft 146 kts 268°
2026-05-06 09:47 60.52249 22.44848 1756 ft 137 kts 268°
2026-05-06 09:48 60.52166 22.42965 1560 ft 132 kts 267°
2026-05-06 09:48 60.52082 22.41140 1395 ft 131 kts 267°
2026-05-06 09:48 60.51997 22.39304 1227 ft 131 kts 267°
2026-05-06 09:48 60.51912 22.37450 1054 ft 131 kts 267°
2026-05-06 09:49 60.51827 22.35577 895 ft 139 kts 266°
2026-05-06 09:49 60.51728 22.33622 727 ft 137 kts 266°
2026-05-06 09:49 60.51644 22.31765 477 ft 131 kts 267°
2026-05-06 09:49 60.51568 22.29915 351 ft 132 kts 266°
2026-05-06 09:50 60.51489 22.28076 173 ft 127 kts 266°
2026-05-06 09:50 60.51429 22.26626 164 ft 64 kts 264°
2026-05-06 09:50 60.51396 22.25839 156 ft 51 kts 265°
2026-05-06 09:50 60.51367 22.25365 151 ft 11 kts 248°
2026-05-06 09:51 60.51299 22.25265 149 ft 13 kts 188°
2026-05-06 09:51 60.51226 22.25302 149 ft 10 kts 128°
2026-05-06 09:51 60.51203 22.25449 151 ft 15 kts 85°
2026-05-06 09:51 60.51214 22.25647 153 ft 14 kts 82°
2026-05-06 09:52 60.51221 22.25832 157 ft 12 kts 85°
2026-05-06 09:52 60.51230 22.26014 159 ft 14 kts 82°
2026-05-06 09:52 60.51264 22.26234 162 ft 17 kts 65°
2026-05-06 09:52 60.51299 22.26451 164 ft 15 kts 82°
2026-05-06 09:53 60.51308 22.26663 167 ft 14 kts 84°
2026-05-06 09:53 60.51317 22.26861 167 ft 14 kts 87°
2026-05-06 09:53 60.51328 22.27120 167 ft 19 kts 84°
2026-05-06 09:53 60.51320 22.27276 167 ft 9 kts 144°
2026-05-06 09:54 60.51270 22.27275 167 ft 5 kts 202°
2026-05-06 09:54 60.51232 22.27275 167 ft 6 kts 146°
2026-05-06 09:54 60.51192 22.27322 167 ft 4 kts 149°
2026-05-06 09:54 60.51185 22.27332 167 ft 0 kts 149°